• Join FlightAware (Why Join?)
  • Login
  • US Flag 
03:35AM EST


 

Airport Tracker/Info


-or-


 

Live Flight TrackerFlight Track Log ✈ UAL4274 ✈ 14-Apr-2013 ✈ KIAH - KICT

Flight Track Log - Related Links

Times and Time Zones

All times are in EDT time to prevent confusion due to time zone crossing. See the UAL4274 flight status page for this flight to view local times or setup timezone preferences in your user account.

Time Position Orientation Groundspeed Altitude Reporting Facility
EDT Latitude Longitude Course Direction KTS MPH feet Rate Location/Type
10:03AM 29.9772 -95.3056 337° Northwest 148 170 800  Level Houston Center
10:05AM 30.0292 -95.2775 25° Northeast 232 267 3,100 1,440 Climbing Houston Center
10:06AM 30.1031 -95.2806 358° North 273 314 4,100 1,260 Climbing Houston Center
10:07AM 30.3495 -95.5497 332° Northwest  Level FlightAware Approximate
10:07AM 30.1711 -95.3297 328° Northwest 270 311 5,900  Level Houston Center
10:08AM 30.4423 -95.6012 334° Northwest  Level FlightAware Approximate
10:08AM 30.2278 -95.3806 322° Northwest 260 299 8,700  Level Houston Center
10:09AM 30.5357 -95.6512 337° Northwest  Level FlightAware Approximate
10:09AM 30.2883 -95.4336 323° Northwest 268 308 10,700  Level Houston Center
10:10AM 30.3586 -95.4964 322° Northwest 307 353 11,700 1,080 Climbing Houston Center
10:11AM 30.4364 -95.5636 323° Northwest 341 392 13,000 1,320 Climbing Houston Center
10:12AM 30.5169 -95.6358 322° Northwest 363 418 14,500 1,500 Climbing Houston Center
10:13AM 30.6072 -95.6903 333° Northwest 365 420 16,100 1,620 Climbing Houston Center
10:14AM 30.7053 -95.7428 335° Northwest 365 420 17,800 1,620 Climbing Houston Center
10:15AM 30.7989 -95.7936 335° Northwest 367 422 19,500 1,620 Climbing Houston Center
10:16AM 30.9136 -95.8531 336° Northwest 374 430 21,200 1,560 Climbing Houston Center
10:17AM 31.0089 -95.9036 336° Northwest 374 430 22,700 1,920 Climbing Houston Center
10:18AM 31.0992 -95.9536 335° Northwest 363 418 25,200 2,280 Climbing Houston Center
10:19AM 31.1861 -95.9906 340° North 331 381 27,400 1,620 Climbing Houston Center
10:20AM 31.2731 -96.0258 341° North 329 379 28,600 1,320 Climbing Houston Center
10:21AM 31.3633 -96.0594 342° North 337 388 30,100 1,440 Climbing Houston Center
10:22AM 31.4472 -96.0925 341° North 338 389 31,600 1,500 Climbing Houston Center
10:23AM 31.5544 -96.1342 342° North 344 396 33,300 1,440 Climbing Houston Center
10:24AM 31.6519 -96.1711 342° North 344 396 34,700 1,260 Climbing Fort Worth Center
10:25AM 31.7419 -96.2089 340° North 352 405 35,900 600 Climbing Fort Worth Center
10:26AM 31.8383 -96.2469 341° North 352 405 36,000  Climbing Fort Worth Center
10:27AM 31.9244 -96.2800 342° North 366 421 36,000  Level Fort Worth Center
10:28AM 32.0311 -96.3228 341° North 392 451 36,000  Level Fort Worth Center
10:29AM 32.1358 -96.3633 342° North 392 451 36,000  Level Fort Worth Center
10:30AM 32.2489 -96.4086 341° North 392 451 36,000  Level Fort Worth Center
10:31AM 32.3558 -96.4494 342° North 392 451 36,000  Level Fort Worth Center
10:32AM 32.4625 -96.4900 342° North 392 451 36,000  Level Fort Worth Center
10:33AM 32.5736 -96.5308 343° North 404 465 36,000  Level Fort Worth Center
10:34AM 32.6822 -96.5717 342° North 404 465 36,000  Level Fort Worth Center
10:35AM 32.7933 -96.6153 342° North 410 472 36,000  Level Fort Worth Center
10:36AM 32.9000 -96.6539 343° North 405 466 36,000  Level Fort Worth Center
10:37AM 33.0067 -96.6975 341° North 405 466 36,000  Level Fort Worth Center
10:38AM 33.1133 -96.7339 344° North 405 466 36,000  Level Fort Worth Center
10:39AM 33.2261 -96.7431 356° North 400 460 36,000  Level Fort Worth Center
10:40AM 33.3389 -96.7544 355° North 400 460 36,000  Level Fort Worth Center
10:41AM 33.4558 -96.7611 357° North 411 473 36,000  Level Fort Worth Center
10:42AM 33.5686 -96.7728 355° North 406 467 36,000  Level Fort Worth Center
10:43AM 33.6833 -96.7844 355° North 406 467 36,000  Level Fort Worth Center
10:44AM 33.7878 -96.7911 357° North 406 467 36,000  Level Fort Worth Center
10:45AM 33.9069 -96.8028 355° North 411 473 36,000  Level Fort Worth Center
10:46AM 34.0217 -96.8122 356° North 416 479 36,000  Level Fort Worth Center
10:47AM 34.1344 -96.8239 355° North 416 479 36,000  Level Fort Worth Center
10:48AM 34.2533 -96.8331 356° North 416 479 36,000  Level Fort Worth Center
10:49AM 34.3744 -96.8450 355° North 428 493 36,000  Level Fort Worth Center
10:50AM 34.4933 -96.8567 355° North 428 493 36,000  Level Fort Worth Center
10:51AM 34.6167 -96.8633 357° North 428 493 36,000  Level Fort Worth Center
10:52AM 34.7503 -96.8778 355° North 428 493 36,000  Level Fort Worth Center
10:53AM 34.8733 -96.8872 356° North 433 498 36,000  Level Fort Worth Center
10:54AM 34.9942 -96.8964 356° North 433 498 36,000 -420 Level Fort Worth Center
10:57AM 35.2842 -96.9194 356° North 426 490 34,600 -600 Descending Kansas City Center
10:58AM 35.4000 -96.9300 356° North 421 484 34,000 -300 Descending Kansas City Center
10:59AM 35.5217 -96.9397 356° North 436 502 34,000  Level Kansas City Center
11:00AM 35.6711 -96.9539 356° North 449 517 34,000  Level Kansas City Center
11:01AM 35.7967 -96.9647 356° North 453 521 34,000  Level Kansas City Center
11:02AM 35.9214 -96.9764 356° North 452 520 34,000  Level Kansas City Center
11:03AM 36.0472 -96.9869 356° North 453 521 34,000  Level Kansas City Center
11:04AM 36.1731 -96.9986 356° North 455 524 34,000  Level Kansas City Center
11:05AM 36.2994 -97.0106 356° North 455 524 34,000 -660 Level Kansas City Center
11:06AM 36.4519 -97.0250 356° North 458 527 32,700 -1,680 Descending Kansas City Center
11:07AM 36.5781 -97.0350 356° North 457 526 30,500 -2,460 Descending Kansas City Center
11:08AM 36.7064 -97.0467 356° North 438 504 27,800 -2,520 Descending Kansas City Center
11:09AM 36.8258 -97.0589 355° North 430 495 25,300 -2,700 Descending Kansas City Center
11:10AM 36.9494 -97.0722 355° North 446 513 22,200 -3,360 Descending Kansas City Center
11:10AM 36.9894 -97.0742 358° North 441 507 21,100 -3,000 Descending Kansas City Center
11:11AM 37.0686 -97.0783 358° North 435 501 19,200 -2,940 Descending Kansas City Center
11:12AM 37.1842 -97.0892 356° North 424 488 15,800 -3,060 Descending Kansas City Center
11:13AM 37.2786 -97.1519 332° Northwest 395 455 12,800 -2,400 Descending Kansas City Center
11:14AM 37.3678 -97.2197 329° Northwest 317 365 10,900 -2,400 Descending Kansas City Center
11:15AM 37.4553 -97.2542 343° North 318 366 8,000 -2,340 Descending Kansas City Center
11:16AM 37.5367 -97.2486 North 296 341 6,200 -1,800 Descending Kansas City Center
11:17AM 37.6142 -97.2469 North 280 322 4,500 -1,320 Descending Kansas City Center
11:18AM 37.6867 -97.2778 341° North 257 296 3,700 -840 Descending Kansas City Center